Year,Month,Day,Hour,Minute,Value (Times are PST for temperature in C)
2015,07,01,00,00,18.30
2015,07,01,00,01,18.30
2015,07,01,00,02,18.20
2015,07,01,00,03,18.20
2015,07,01,00,04,18.20
2015,07,01,00,05,18.20
2015,07,01,00,06,18.20
2015,07,01,00,07,18.20
2015,07,01,00,08,18.20
2015,07,01,00,09,18.20
2015,07,01,00,10,18.20
2015,07,01,00,11,18.20
2015,07,01,00,12,18.20
2015,07,01,00,13,18.20
2015,07,01,00,14,18.20
2015,07,01,00,15,18.20
2015,07,01,00,16,18.20
2015,07,01,00,17,18.20
2015,07,01,00,18,18.20
2015,07,01,00,19,18.20
2015,07,01,00,20,18.20
2015,07,01,00,21,18.20
2015,07,01,00,22,18.20
2015,07,01,00,23,18.20
2015,07,01,00,24,18.30
2015,07,01,00,25,18.30
2015,07,01,00,26,18.30
2015,07,01,00,27,18.30
2015,07,01,00,28,18.30
2015,07,01,00,29,18.30
2015,07,01,00,30,18.30
2015,07,01,00,31,18.30
2015,07,01,00,32,18.30
2015,07,01,00,33,18.30
2015,07,01,00,34,18.30
2015,07,01,00,35,18.20
2015,07,01,00,36,18.20
2015,07,01,00,37,18.20
2015,07,01,00,38,18.20
2015,07,01,00,39,18.20
2015,07,01,00,40,18.20
2015,07,01,00,41,18.20
2015,07,01,00,42,18.20
2015,07,01,00,43,18.20
2015,07,01,00,44,18.10
2015,07,01,00,45,18.10
2015,07,01,00,46,18.10
2015,07,01,00,47,18.10
2015,07,01,00,48,18.10
2015,07,01,00,49,18.10
2015,07,01,00,50,18.10
2015,07,01,00,51,18.00
2015,07,01,00,52,18.00
2015,07,01,00,53,18.00
2015,07,01,00,54,18.00
2015,07,01,00,55,17.90
2015,07,01,00,56,17.90
2015,07,01,00,57,17.90
2015,07,01,00,58,17.90
2015,07,01,00,59,17.90
2015,07,01,01,00,17.90
2015,07,01,01,01,17.90
2015,07,01,01,02,17.80
2015,07,01,01,03,17.80
2015,07,01,01,04,17.80
2015,07,01,01,05,17.80
2015,07,01,01,06,17.80
2015,07,01,01,07,17.80
2015,07,01,01,08,17.70
2015,07,01,01,09,17.70
2015,07,01,01,10,17.70
2015,07,01,01,11,17.70
2015,07,01,01,12,17.70
2015,07,01,01,13,17.70
2015,07,01,01,14,17.70
2015,07,01,01,15,17.70
2015,07,01,01,16,17.70
2015,07,01,01,17,17.70
2015,07,01,01,18,17.60
2015,07,01,01,19,17.60
2015,07,01,01,20,17.60
2015,07,01,01,21,17.60
2015,07,01,01,22,17.60
2015,07,01,01,23,17.60
2015,07,01,01,24,17.60
2015,07,01,01,25,17.50
2015,07,01,01,26,17.50
2015,07,01,01,27,17.40
2015,07,01,01,28,17.40
2015,07,01,01,29,17.40
2015,07,01,01,30,17.40
2015,07,01,01,31,17.30
2015,07,01,01,32,17.30
2015,07,01,01,33,17.30
2015,07,01,01,34,17.30
2015,07,01,01,35,17.30
2015,07,01,01,36,17.30
2015,07,01,01,37,17.20
2015,07,01,01,38,17.20
2015,07,01,01,39,17.20
2015,07,01,01,40,17.20
2015,07,01,01,41,17.20
2015,07,01,01,42,17.20
2015,07,01,01,43,17.10
2015,07,01,01,44,17.10
2015,07,01,01,45,17.10
2015,07,01,01,46,17.10
2015,07,01,01,47,17.10
2015,07,01,01,48,17.10
2015,07,01,01,49,17.00
2015,07,01,01,50,17.00
2015,07,01,01,51,17.00
2015,07,01,01,52,17.00
2015,07,01,01,53,16.90
2015,07,01,01,54,16.90
2015,07,01,01,55,16.90
2015,07,01,01,56,16.90
2015,07,01,01,57,16.90
2015,07,01,01,58,16.90
2015,07,01,01,59,16.80
2015,07,01,02,00,16.80
2015,07,01,02,01,16.80
2015,07,01,02,02,16.80
2015,07,01,02,03,16.80
2015,07,01,02,04,16.80
2015,07,01,02,05,16.80
2015,07,01,02,06,16.80
2015,07,01,02,07,16.80
2015,07,01,02,08,16.80
2015,07,01,02,09,16.80
2015,07,01,02,10,16.80
2015,07,01,02,11,16.70
2015,07,01,02,12,16.70
2015,07,01,02,13,16.70
2015,07,01,02,14,16.70
2015,07,01,02,15,16.70
2015,07,01,02,16,16.70
2015,07,01,02,17,16.70
2015,07,01,02,18,16.70
2015,07,01,02,19,16.70
2015,07,01,02,20,16.70
2015,07,01,02,21,16.60
2015,07,01,02,22,16.60
2015,07,01,02,23,16.60
2015,07,01,02,24,16.60
2015,07,01,02,25,16.60
2015,07,01,02,26,16.60
2015,07,01,02,27,16.60
2015,07,01,02,28,16.50
2015,07,01,02,29,16.50
2015,07,01,02,30,16.50
2015,07,01,02,31,16.50
2015,07,01,02,32,16.50
2015,07,01,02,33,16.50
2015,07,01,02,34,16.50
2015,07,01,02,35,16.50
2015,07,01,02,36,16.40
2015,07,01,02,37,16.40
2015,07,01,02,38,16.50
2015,07,01,02,39,16.50
2015,07,01,02,40,16.50
2015,07,01,02,41,16.50
2015,07,01,02,42,16.50
2015,07,01,02,43,16.50
2015,07,01,02,44,16.50
2015,07,01,02,45,16.50
2015,07,01,02,46,16.50
2015,07,01,02,47,16.60
2015,07,01,02,48,16.60
2015,07,01,02,49,16.60
2015,07,01,02,50,16.60
2015,07,01,02,51,16.60
2015,07,01,02,52,16.60
2015,07,01,02,53,16.60
2015,07,01,02,54,16.60
2015,07,01,02,55,16.60
2015,07,01,02,56,16.60
2015,07,01,02,57,16.60
2015,07,01,02,58,16.60
2015,07,01,02,59,16.60
2015,07,01,03,00,16.60
2015,07,01,03,01,16.60
2015,07,01,03,02,16.70
2015,07,01,03,03,16.70
2015,07,01,03,04,16.70
2015,07,01,03,05,16.70
2015,07,01,03,06,16.70
2015,07,01,03,07,16.70
2015,07,01,03,08,16.70
2015,07,01,03,09,16.70
2015,07,01,03,10,16.70
2015,07,01,03,11,16.70
2015,07,01,03,12,16.70
2015,07,01,03,13,16.70
2015,07,01,03,14,16.70
2015,07,01,03,15,16.70
2015,07,01,03,16,16.80
2015,07,01,03,17,16.80
2015,07,01,03,18,16.90
2015,07,01,03,19,16.90
2015,07,01,03,20,17.00
2015,07,01,03,21,17.00
2015,07,01,03,22,17.20
2015,07,01,03,23,17.20
2015,07,01,03,24,17.30
2015,07,01,03,25,17.30
2015,07,01,03,26,17.40
2015,07,01,03,27,17.50
2015,07,01,03,28,17.50
2015,07,01,03,29,17.60
2015,07,01,03,30,17.60
2015,07,01,03,31,17.60
2015,07,01,03,32,17.60
2015,07,01,03,33,17.60
2015,07,01,03,34,17.60
2015,07,01,03,35,17.60
2015,07,01,03,36,17.60
2015,07,01,03,37,17.60
2015,07,01,03,38,17.60
2015,07,01,03,39,17.50
2015,07,01,03,40,17.50
2015,07,01,03,41,17.40
2015,07,01,03,42,17.40
2015,07,01,03,43,17.40
2015,07,01,03,44,17.30
2015,07,01,03,45,17.30
2015,07,01,03,46,17.30
2015,07,01,03,47,17.20
2015,07,01,03,48,17.20
2015,07,01,03,49,17.20
2015,07,01,03,50,17.10
2015,07,01,03,51,17.10
2015,07,01,03,52,17.10
2015,07,01,03,53,17.10
2015,07,01,03,54,17.00
2015,07,01,03,55,17.00
2015,07,01,03,56,16.90
2015,07,01,03,57,16.80
2015,07,01,03,58,16.80
2015,07,01,03,59,16.70
2015,07,01,04,00,16.60
2015,07,01,04,01,16.50
2015,07,01,04,02,16.40
2015,07,01,04,03,16.30
2015,07,01,04,04,16.20
2015,07,01,04,05,16.10
2015,07,01,04,06,16.00
2015,07,01,04,07,15.90
2015,07,01,04,08,15.80
2015,07,01,04,09,15.80
2015,07,01,04,10,15.70
2015,07,01,04,11,15.60
2015,07,01,04,12,15.60
2015,07,01,04,13,15.50
2015,07,01,04,14,15.50
2015,07,01,04,15,15.40
2015,07,01,04,16,15.30
2015,07,01,04,17,15.30
2015,07,01,04,18,15.30
2015,07,01,04,19,15.20
2015,07,01,04,20,15.20
2015,07,01,04,21,15.20
2015,07,01,04,22,15.10
2015,07,01,04,23,15.10
2015,07,01,04,24,15.00
2015,07,01,04,25,14.90
2015,07,01,04,26,14.90
2015,07,01,04,27,14.80
2015,07,01,04,28,14.80
2015,07,01,04,29,14.80
2015,07,01,04,30,14.80
2015,07,01,04,31,14.70
2015,07,01,04,32,14.70
2015,07,01,04,33,14.70
2015,07,01,04,34,14.70
2015,07,01,04,35,14.70
2015,07,01,04,36,14.70
2015,07,01,04,37,14.70
2015,07,01,04,38,14.70
2015,07,01,04,39,14.70
2015,07,01,04,40,14.80
2015,07,01,04,41,14.80
2015,07,01,04,42,14.80
2015,07,01,04,43,14.80
2015,07,01,04,44,14.90
2015,07,01,04,45,15.00
2015,07,01,04,46,15.00
2015,07,01,04,47,15.10
2015,07,01,04,48,15.10
2015,07,01,04,49,15.10
2015,07,01,04,50,15.20
2015,07,01,04,51,15.20
2015,07,01,04,52,15.20
2015,07,01,04,53,15.30
2015,07,01,04,54,15.30
2015,07,01,04,55,15.30
2015,07,01,04,56,15.30
2015,07,01,04,57,15.40
2015,07,01,04,58,15.40
2015,07,01,04,59,15.40
2015,07,01,05,00,15.40
2015,07,01,05,01,15.30
2015,07,01,05,02,15.30
2015,07,01,05,03,15.30
2015,07,01,05,04,15.30
2015,07,01,05,05,15.30
2015,07,01,05,06,15.30
2015,07,01,05,07,15.30
2015,07,01,05,08,15.30
2015,07,01,05,09,15.20
2015,07,01,05,10,15.20
2015,07,01,05,11,15.20
2015,07,01,05,12,15.20
2015,07,01,05,13,15.20
2015,07,01,05,14,15.20
2015,07,01,05,15,15.10
2015,07,01,05,16,15.10
2015,07,01,05,17,15.10
2015,07,01,05,18,15.10
2015,07,01,05,19,15.10
2015,07,01,05,20,15.10
2015,07,01,05,21,15.10
2015,07,01,05,22,15.00
2015,07,01,05,23,15.00
2015,07,01,05,24,15.00
2015,07,01,05,25,15.00
2015,07,01,05,26,15.00
2015,07,01,05,27,14.90
2015,07,01,05,28,14.90
2015,07,01,05,29,14.90
2015,07,01,05,30,14.90
2015,07,01,05,31,14.90
2015,07,01,05,32,14.90
2015,07,01,05,33,14.90
2015,07,01,05,34,14.90
2015,07,01,05,35,14.90
2015,07,01,05,36,14.90
2015,07,01,05,37,14.90
2015,07,01,05,38,14.90
2015,07,01,05,39,14.90
2015,07,01,05,40,14.90
2015,07,01,05,41,15.00
2015,07,01,05,42,15.00
2015,07,01,05,43,15.00
2015,07,01,05,44,15.10
2015,07,01,05,45,15.10
2015,07,01,05,46,15.20
2015,07,01,05,47,15.30
2015,07,01,05,48,15.30
2015,07,01,05,49,15.40
2015,07,01,05,50,15.40
2015,07,01,05,51,15.50
2015,07,01,05,52,15.60
2015,07,01,05,53,15.60
2015,07,01,05,54,15.70
2015,07,01,05,55,15.80
2015,07,01,05,56,15.80
2015,07,01,05,57,15.90
2015,07,01,05,58,15.90
2015,07,01,05,59,16.00
2015,07,01,06,00,16.10
2015,07,01,06,01,16.10
2015,07,01,06,02,16.20
2015,07,01,06,03,16.20
2015,07,01,06,04,16.30
2015,07,01,06,05,16.30
2015,07,01,06,06,16.30
2015,07,01,06,07,16.40
2015,07,01,06,08,16.40
2015,07,01,06,09,16.50
2015,07,01,06,10,16.50
2015,07,01,06,11,16.60
2015,07,01,06,12,16.60
2015,07,01,06,13,16.60
2015,07,01,06,14,16.70
2015,07,01,06,15,16.70
2015,07,01,06,16,16.80
2015,07,01,06,17,16.80
2015,07,01,06,18,16.80
2015,07,01,06,19,16.80
2015,07,01,06,20,16.90
2015,07,01,06,21,16.90
2015,07,01,06,22,16.90
2015,07,01,06,23,17.00
2015,07,01,06,24,17.00
2015,07,01,06,25,17.10
2015,07,01,06,26,17.10
2015,07,01,06,27,17.20
2015,07,01,06,28,17.20
2015,07,01,06,29,17.20
2015,07,01,06,30,17.30
2015,07,01,06,31,17.30
2015,07,01,06,32,17.30
2015,07,01,06,33,17.30
2015,07,01,06,34,17.30
2015,07,01,06,35,17.30
2015,07,01,06,36,17.30
2015,07,01,06,37,17.30
2015,07,01,06,38,17.30
2015,07,01,06,39,17.30
2015,07,01,06,40,17.30
2015,07,01,06,41,17.30
2015,07,01,06,42,17.30
2015,07,01,06,43,17.30
2015,07,01,06,44,17.30
2015,07,01,06,45,17.30
2015,07,01,06,46,17.30
2015,07,01,06,47,17.30
2015,07,01,06,48,17.30
2015,07,01,06,49,17.30
2015,07,01,06,50,17.30
2015,07,01,06,51,17.30
2015,07,01,06,52,17.30
2015,07,01,06,53,17.40
2015,07,01,06,54,17.40
2015,07,01,06,55,17.40
2015,07,01,06,56,17.40
2015,07,01,06,57,17.40
2015,07,01,06,58,17.40
2015,07,01,06,59,17.50
2015,07,01,07,00,17.50
2015,07,01,07,01,17.50
2015,07,01,07,02,17.50
2015,07,01,07,03,17.60
2015,07,01,07,04,17.60
2015,07,01,07,05,17.60
2015,07,01,07,06,17.60
2015,07,01,07,07,17.60
2015,07,01,07,08,17.70
2015,07,01,07,09,17.70
2015,07,01,07,10,17.70
2015,07,01,07,11,17.70
2015,07,01,07,12,17.80
2015,07,01,07,13,17.80
2015,07,01,07,14,17.80
2015,07,01,07,15,17.90
2015,07,01,07,16,17.90
2015,07,01,07,17,18.00
2015,07,01,07,18,18.00
2015,07,01,07,19,18.00
2015,07,01,07,20,18.10
2015,07,01,07,21,18.10
2015,07,01,07,22,18.20
2015,07,01,07,23,18.20
2015,07,01,07,24,18.30
2015,07,01,07,25,18.30
2015,07,01,07,26,18.30
2015,07,01,07,27,18.40
2015,07,01,07,28,18.40
2015,07,01,07,29,18.50
2015,07,01,07,30,18.50
2015,07,01,07,31,18.50
2015,07,01,07,32,18.50
2015,07,01,07,33,18.60
2015,07,01,07,34,18.60
2015,07,01,07,35,18.60
2015,07,01,07,36,18.70
2015,07,01,07,37,18.70
2015,07,01,07,38,18.70
2015,07,01,07,39,18.70
2015,07,01,07,40,18.80
2015,07,01,07,41,18.80
2015,07,01,07,42,18.80
2015,07,01,07,43,18.80
2015,07,01,07,44,18.80
2015,07,01,07,45,18.80
2015,07,01,07,46,18.90
2015,07,01,07,47,18.90
2015,07,01,07,48,18.90
2015,07,01,07,49,18.90
2015,07,01,07,50,19.00
2015,07,01,07,51,19.00
2015,07,01,07,52,19.00
2015,07,01,07,53,19.00
2015,07,01,07,54,19.00
2015,07,01,07,55,19.00
2015,07,01,07,56,19.00
2015,07,01,07,57,19.00
2015,07,01,07,58,19.00
2015,07,01,07,59,19.10
2015,07,01,08,00,19.10
2015,07,01,08,01,19.10
2015,07,01,08,02,19.10
2015,07,01,08,03,19.20
2015,07,01,08,04,19.20
2015,07,01,08,05,19.20
2015,07,01,08,06,19.20
2015,07,01,08,07,19.20
2015,07,01,08,08,19.20
2015,07,01,08,09,19.20
2015,07,01,08,10,19.20
2015,07,01,08,11,19.20
2015,07,01,08,12,19.20
2015,07,01,08,13,19.30
2015,07,01,08,14,19.30
2015,07,01,08,15,19.30
2015,07,01,08,16,19.30
2015,07,01,08,17,19.30
2015,07,01,08,18,19.30
2015,07,01,08,19,19.30
2015,07,01,08,20,19.30
2015,07,01,08,21,19.30
2015,07,01,08,22,19.30
2015,07,01,08,23,19.40
2015,07,01,08,24,19.40
2015,07,01,08,25,19.40
2015,07,01,08,26,19.50
2015,07,01,08,27,19.50
2015,07,01,08,28,19.60
2015,07,01,08,29,19.60
2015,07,01,08,30,19.60
2015,07,01,08,31,19.60
2015,07,01,08,32,19.70
2015,07,01,08,33,19.70
2015,07,01,08,34,19.70
2015,07,01,08,35,19.70
2015,07,01,08,36,19.70
2015,07,01,08,37,19.70
2015,07,01,08,38,19.60
2015,07,01,08,39,19.60
2015,07,01,08,40,19.60
2015,07,01,08,41,19.60
2015,07,01,08,42,19.60
2015,07,01,08,43,19.60
2015,07,01,08,44,19.60
2015,07,01,08,45,19.60
2015,07,01,08,46,19.60
2015,07,01,08,47,19.60
2015,07,01,08,48,19.60
2015,07,01,08,49,19.70
2015,07,01,08,50,19.70
2015,07,01,08,51,19.70
2015,07,01,08,52,19.70
2015,07,01,08,53,19.80
2015,07,01,08,54,19.80
2015,07,01,08,55,19.80
2015,07,01,08,56,19.80
2015,07,01,08,57,19.80
2015,07,01,08,58,19.80
2015,07,01,08,59,19.90
2015,07,01,09,00,19.90
2015,07,01,09,01,19.90
2015,07,01,09,02,20.00
2015,07,01,09,03,20.00
2015,07,01,09,04,20.10
2015,07,01,09,05,20.10
2015,07,01,09,06,20.20
2015,07,01,09,07,20.30
2015,07,01,09,08,20.40
2015,07,01,09,09,20.40
2015,07,01,09,10,20.50
2015,07,01,09,11,20.60
2015,07,01,09,12,20.60
2015,07,01,09,13,20.70
2015,07,01,09,14,20.70
2015,07,01,09,15,20.70
2015,07,01,09,16,20.80
2015,07,01,09,17,20.80
2015,07,01,09,18,20.80
2015,07,01,09,19,20.80
2015,07,01,09,20,20.80
2015,07,01,09,21,20.80
2015,07,01,09,22,20.80
2015,07,01,09,23,20.80
2015,07,01,09,24,20.80
2015,07,01,09,25,20.80
2015,07,01,09,26,20.90
2015,07,01,09,27,20.90
2015,07,01,09,28,20.90
2015,07,01,09,29,20.90
2015,07,01,09,30,20.90
2015,07,01,09,31,20.90
2015,07,01,09,32,21.00
2015,07,01,09,33,21.00
2015,07,01,09,34,21.00
2015,07,01,09,35,21.10
2015,07,01,09,36,21.20
2015,07,01,09,37,21.20
2015,07,01,09,38,21.30
2015,07,01,09,39,21.40
2015,07,01,09,40,21.50
2015,07,01,09,41,21.60
2015,07,01,09,42,21.70
2015,07,01,09,43,21.70
2015,07,01,09,44,21.70
2015,07,01,09,45,21.70
2015,07,01,09,46,21.60
2015,07,01,09,47,21.60
2015,07,01,09,48,21.60
2015,07,01,09,49,21.60
2015,07,01,09,50,21.60
2015,07,01,09,51,21.60
2015,07,01,09,52,21.60
2015,07,01,09,53,21.60
2015,07,01,09,54,21.60
2015,07,01,09,55,21.60
2015,07,01,09,56,21.70
2015,07,01,09,57,21.70
2015,07,01,09,58,21.80
2015,07,01,09,59,21.80
2015,07,01,10,00,21.80
2015,07,01,10,01,21.90
2015,07,01,10,02,21.90
2015,07,01,10,03,21.90
2015,07,01,10,04,21.80
2015,07,01,10,05,21.80
2015,07,01,10,06,21.80
2015,07,01,10,07,21.80
2015,07,01,10,08,21.90
2015,07,01,10,09,21.90
2015,07,01,10,10,21.90
2015,07,01,10,11,22.00
2015,07,01,10,12,22.00
2015,07,01,10,13,22.00
2015,07,01,10,14,22.00
2015,07,01,10,15,22.10
2015,07,01,10,16,22.10
2015,07,01,10,17,22.10
2015,07,01,10,18,22.10
2015,07,01,10,19,22.00
2015,07,01,10,20,22.00
2015,07,01,10,21,22.00
2015,07,01,10,22,22.10
2015,07,01,10,23,22.00
2015,07,01,10,24,22.00
2015,07,01,10,25,22.00
2015,07,01,10,26,22.00
2015,07,01,10,27,22.00
2015,07,01,10,28,22.00
2015,07,01,10,29,22.00
2015,07,01,10,30,22.10
2015,07,01,10,31,22.10
2015,07,01,10,32,22.10
2015,07,01,10,33,22.10
2015,07,01,10,34,22.20
2015,07,01,10,35,22.20
2015,07,01,10,36,22.20
2015,07,01,10,37,22.30
2015,07,01,10,38,22.40
2015,07,01,10,39,22.60
2015,07,01,10,40,22.60
2015,07,01,10,41,22.70
2015,07,01,10,42,22.80
2015,07,01,10,43,22.90
2015,07,01,10,44,23.00
2015,07,01,10,45,23.10
2015,07,01,10,46,23.10
2015,07,01,10,47,23.10
2015,07,01,10,48,23.10
2015,07,01,10,49,23.10
2015,07,01,10,50,23.10
2015,07,01,10,51,23.10
2015,07,01,10,52,23.10
2015,07,01,10,53,23.10
2015,07,01,10,54,23.10
2015,07,01,10,55,23.20
2015,07,01,10,56,23.20
2015,07,01,10,57,23.20
2015,07,01,10,58,23.30
2015,07,01,10,59,23.30
2015,07,01,11,00,23.30
2015,07,01,11,01,23.30
2015,07,01,11,02,23.30
2015,07,01,11,03,23.40
2015,07,01,11,04,23.40
2015,07,01,11,05,23.50
2015,07,01,11,06,23.60
2015,07,01,11,07,23.80
2015,07,01,11,08,23.90
2015,07,01,11,09,24.00
2015,07,01,11,10,24.10
2015,07,01,11,11,24.20
2015,07,01,11,12,24.20
2015,07,01,11,13,24.20
2015,07,01,11,14,24.20
2015,07,01,11,15,24.10
2015,07,01,11,16,23.90
2015,07,01,11,17,23.90
2015,07,01,11,18,23.90
2015,07,01,11,19,23.80
2015,07,01,11,20,23.80
2015,07,01,11,21,23.80
2015,07,01,11,22,23.70
2015,07,01,11,23,23.60
2015,07,01,11,24,23.50
2015,07,01,11,25,23.50
2015,07,01,11,26,23.60
2015,07,01,11,27,23.60
2015,07,01,11,28,23.60
2015,07,01,11,29,23.70
2015,07,01,11,30,23.70
2015,07,01,11,31,23.70
2015,07,01,11,32,23.80
2015,07,01,11,33,23.90
2015,07,01,11,34,24.00
2015,07,01,11,35,24.10
2015,07,01,11,36,24.10
2015,07,01,11,37,24.20
2015,07,01,11,38,24.20
2015,07,01,11,39,24.20
2015,07,01,11,40,24.10
2015,07,01,11,41,24.10
2015,07,01,11,42,24.10
2015,07,01,11,43,24.10
2015,07,01,11,44,24.20
2015,07,01,11,45,24.20
2015,07,01,11,46,24.20
2015,07,01,11,47,24.30
2015,07,01,11,48,24.20
2015,07,01,11,49,24.20
2015,07,01,11,50,24.20
2015,07,01,11,51,24.20
2015,07,01,11,52,24.30
2015,07,01,11,53,24.30
2015,07,01,11,54,24.30
2015,07,01,11,55,24.40
2015,07,01,11,56,24.50
2015,07,01,11,57,24.70
2015,07,01,11,58,24.70
2015,07,01,11,59,24.80
2015,07,01,12,00,24.90
2015,07,01,12,01,25.00
2015,07,01,12,02,25.20
2015,07,01,12,03,25.30
2015,07,01,12,04,25.40
2015,07,01,12,05,25.50
2015,07,01,12,06,25.50
2015,07,01,12,07,25.60
2015,07,01,12,08,25.70
2015,07,01,12,09,25.80
2015,07,01,12,10,25.80
2015,07,01,12,11,25.80
2015,07,01,12,12,25.80
2015,07,01,12,13,25.80
2015,07,01,12,14,25.70
2015,07,01,12,15,25.60
2015,07,01,12,16,25.50
2015,07,01,12,17,25.40
2015,07,01,12,18,25.30
2015,07,01,12,19,25.40
2015,07,01,12,20,25.40
2015,07,01,12,21,25.50
2015,07,01,12,22,25.60
2015,07,01,12,23,25.70
2015,07,01,12,24,25.70
2015,07,01,12,25,25.70
2015,07,01,12,26,25.70
2015,07,01,12,27,25.60
2015,07,01,12,28,25.50
2015,07,01,12,29,25.40
2015,07,01,12,30,25.40
2015,07,01,12,31,25.40
2015,07,01,12,32,25.40
2015,07,01,12,33,25.40
2015,07,01,12,34,25.40
2015,07,01,12,35,25.40
2015,07,01,12,36,25.40
2015,07,01,12,37,25.50
2015,07,01,12,38,25.50
2015,07,01,12,39,25.60
2015,07,01,12,40,25.60
2015,07,01,12,41,25.60
2015,07,01,12,42,25.60
2015,07,01,12,43,25.70
2015,07,01,12,44,25.60
2015,07,01,12,45,25.70
2015,07,01,12,46,25.70
2015,07,01,12,47,25.70
2015,07,01,12,48,25.80
2015,07,01,12,49,25.90
2015,07,01,12,50,25.90
2015,07,01,12,51,26.00
2015,07,01,12,52,26.10
2015,07,01,12,53,26.10
2015,07,01,12,54,26.20
2015,07,01,12,55,26.10
2015,07,01,12,56,26.10
2015,07,01,12,57,26.10
2015,07,01,12,58,26.10
2015,07,01,12,59,26.10
2015,07,01,13,00,26.20
2015,07,01,13,01,26.30
2015,07,01,13,02,26.40
2015,07,01,13,03,26.50
2015,07,01,13,04,26.60
2015,07,01,13,05,26.70
2015,07,01,13,06,26.90
2015,07,01,13,07,26.90
2015,07,01,13,08,26.90
2015,07,01,13,09,26.90
2015,07,01,13,10,27.00
2015,07,01,13,11,27.00
2015,07,01,13,12,27.00
2015,07,01,13,13,27.10
2015,07,01,13,14,27.10
2015,07,01,13,15,27.10
2015,07,01,13,16,27.10
2015,07,01,13,17,27.10
2015,07,01,13,18,27.10
2015,07,01,13,19,27.10
2015,07,01,13,20,27.10
2015,07,01,13,21,27.10
2015,07,01,13,22,27.20
2015,07,01,13,23,27.20
2015,07,01,13,24,27.30
2015,07,01,13,25,27.30
2015,07,01,13,26,27.40
2015,07,01,13,27,27.50
2015,07,01,13,28,27.40
2015,07,01,13,29,27.40
2015,07,01,13,30,27.40
2015,07,01,13,31,27.40
2015,07,01,13,32,27.40
2015,07,01,13,33,27.40
2015,07,01,13,34,27.40
2015,07,01,13,35,27.40
2015,07,01,13,36,27.40
2015,07,01,13,37,27.50
2015,07,01,13,38,27.60
2015,07,01,13,39,27.60
2015,07,01,13,40,27.60
2015,07,01,13,41,27.60
2015,07,01,13,42,27.50
2015,07,01,13,43,27.50
2015,07,01,13,44,27.50
2015,07,01,13,45,27.50
2015,07,01,13,46,27.50
2015,07,01,13,47,27.50
2015,07,01,13,48,27.40
2015,07,01,13,49,27.40
2015,07,01,13,50,27.50
2015,07,01,13,51,27.60
2015,07,01,13,52,27.60
2015,07,01,13,53,27.60
2015,07,01,13,54,27.70
2015,07,01,13,55,27.70
2015,07,01,13,56,27.70
2015,07,01,13,57,27.70
2015,07,01,13,58,27.80
2015,07,01,13,59,27.80
2015,07,01,14,00,27.80
2015,07,01,14,01,27.80
2015,07,01,14,02,27.90
2015,07,01,14,03,27.90
2015,07,01,14,04,27.90
2015,07,01,14,05,27.90
2015,07,01,14,06,27.90
2015,07,01,14,07,27.80
2015,07,01,14,08,27.80
2015,07,01,14,09,27.80
2015,07,01,14,10,27.70
2015,07,01,14,11,27.60
2015,07,01,14,12,27.60
2015,07,01,14,13,27.50
2015,07,01,14,14,27.40
2015,07,01,14,15,27.40
2015,07,01,14,16,27.30
2015,07,01,14,17,27.30
2015,07,01,14,18,27.40
2015,07,01,14,19,27.50
2015,07,01,14,20,27.60
2015,07,01,14,21,27.70
2015,07,01,14,22,27.80
2015,07,01,14,23,27.90
2015,07,01,14,24,27.90
2015,07,01,14,25,28.00
2015,07,01,14,26,28.10
2015,07,01,14,27,28.20
2015,07,01,14,28,28.20
2015,07,01,14,29,28.20
2015,07,01,14,30,28.20
2015,07,01,14,31,28.20
2015,07,01,14,32,28.30
2015,07,01,14,33,28.20
2015,07,01,14,34,28.20
2015,07,01,14,35,28.10
2015,07,01,14,36,28.10
2015,07,01,14,37,28.00
2015,07,01,14,38,28.00
2015,07,01,14,39,27.90
2015,07,01,14,40,27.90
2015,07,01,14,41,27.80
2015,07,01,14,42,27.80
2015,07,01,14,43,27.80
2015,07,01,14,44,27.80
2015,07,01,14,45,27.80
2015,07,01,14,46,27.80
2015,07,01,14,47,27.80
2015,07,01,14,48,27.90
2015,07,01,14,49,27.90
2015,07,01,14,50,28.00
2015,07,01,14,51,28.10
2015,07,01,14,52,28.20
2015,07,01,14,53,28.30
2015,07,01,14,54,28.30
2015,07,01,14,55,28.40
2015,07,01,14,56,28.50
2015,07,01,14,57,28.60
2015,07,01,14,58,28.60
2015,07,01,14,59,28.60
2015,07,01,15,00,28.60
2015,07,01,15,01,28.60
2015,07,01,15,02,28.60
2015,07,01,15,03,28.60
2015,07,01,15,04,28.70
2015,07,01,15,05,28.70
2015,07,01,15,06,28.70
2015,07,01,15,07,28.80
2015,07,01,15,08,28.80
2015,07,01,15,09,28.80
2015,07,01,15,10,28.80
2015,07,01,15,11,28.80
2015,07,01,15,12,28.90
2015,07,01,15,13,29.00
2015,07,01,15,14,29.10
2015,07,01,15,15,29.10
2015,07,01,15,16,29.10
2015,07,01,15,17,29.10
2015,07,01,15,18,29.10
2015,07,01,15,19,29.10
2015,07,01,15,20,29.10
2015,07,01,15,21,29.10
2015,07,01,15,22,29.10
2015,07,01,15,23,29.00
2015,07,01,15,24,29.00
2015,07,01,15,25,28.90
2015,07,01,15,26,28.90
2015,07,01,15,27,28.90
2015,07,01,15,28,28.90
2015,07,01,15,29,28.90
2015,07,01,15,30,28.90
2015,07,01,15,31,29.00
2015,07,01,15,32,29.10
2015,07,01,15,33,29.10
2015,07,01,15,34,29.20
2015,07,01,15,35,29.20
2015,07,01,15,36,29.20
2015,07,01,15,37,29.20
2015,07,01,15,38,29.30
2015,07,01,15,39,29.30
2015,07,01,15,40,29.30
2015,07,01,15,41,29.30
2015,07,01,15,42,29.30
2015,07,01,15,43,29.30
2015,07,01,15,44,29.30
2015,07,01,15,45,29.30
2015,07,01,15,46,29.30
2015,07,01,15,47,29.40
2015,07,01,15,48,29.40
2015,07,01,15,49,29.50
2015,07,01,15,50,29.50
2015,07,01,15,51,29.60
2015,07,01,15,52,29.60
2015,07,01,15,53,29.70
2015,07,01,15,54,29.70
2015,07,01,15,55,29.70
2015,07,01,15,56,29.80
2015,07,01,15,57,29.80
2015,07,01,15,58,29.80
2015,07,01,15,59,29.80
2015,07,01,16,00,29.70
2015,07,01,16,01,29.70
2015,07,01,16,02,29.70
2015,07,01,16,03,29.60
2015,07,01,16,04,29.60
2015,07,01,16,05,29.60
2015,07,01,16,06,29.60
2015,07,01,16,07,29.60
2015,07,01,16,08,29.50
2015,07,01,16,09,29.50
2015,07,01,16,10,29.50
2015,07,01,16,11,29.60
2015,07,01,16,12,29.60
2015,07,01,16,13,29.60
2015,07,01,16,14,29.60
2015,07,01,16,15,29.70
2015,07,01,16,16,29.70
2015,07,01,16,17,29.70
2015,07,01,16,18,29.70
2015,07,01,16,19,29.80
2015,07,01,16,20,29.80
2015,07,01,16,21,29.80
2015,07,01,16,22,29.80
2015,07,01,16,23,29.80
2015,07,01,16,24,29.90
2015,07,01,16,25,29.90
2015,07,01,16,26,30.00
2015,07,01,16,27,30.10
2015,07,01,16,28,30.10
2015,07,01,16,29,30.20
2015,07,01,16,30,30.20
2015,07,01,16,31,30.30
2015,07,01,16,32,30.30
2015,07,01,16,33,30.30
2015,07,01,16,34,30.40
2015,07,01,16,35,30.50
2015,07,01,16,36,30.60
2015,07,01,16,37,30.60
2015,07,01,16,38,30.70
2015,07,01,16,39,30.60
2015,07,01,16,40,30.60
2015,07,01,16,41,30.60
2015,07,01,16,42,30.60
2015,07,01,16,43,30.50
2015,07,01,16,44,30.50
2015,07,01,16,45,30.50
2015,07,01,16,46,30.50
2015,07,01,16,47,30.40
2015,07,01,16,48,30.40
2015,07,01,16,49,30.40
2015,07,01,16,50,30.40
2015,07,01,16,51,30.40
2015,07,01,16,52,30.40
2015,07,01,16,53,30.40
2015,07,01,16,54,30.40
2015,07,01,16,55,30.50
2015,07,01,16,56,30.50
2015,07,01,16,57,30.50
2015,07,01,16,58,30.50
2015,07,01,16,59,30.50
2015,07,01,17,00,30.50
2015,07,01,17,01,30.50
2015,07,01,17,02,30.50
2015,07,01,17,03,30.50
2015,07,01,17,04,30.50
2015,07,01,17,05,30.60
2015,07,01,17,06,30.60
2015,07,01,17,07,30.60
2015,07,01,17,08,30.70
2015,07,01,17,09,30.70
2015,07,01,17,10,30.70
2015,07,01,17,11,30.70
2015,07,01,17,12,30.70
2015,07,01,17,13,30.70
2015,07,01,17,14,30.70
2015,07,01,17,15,30.80
2015,07,01,17,16,30.80
2015,07,01,17,17,30.80
2015,07,01,17,18,30.80
2015,07,01,17,19,30.80